This is the latest recevied weather packets stored in our database for station/object GBTWP-2. If no packets are shown the sender has not sent any weather packets the latest 10 day(s).
| Time | Temp. | Humidity | Pressure | Rain* | Wind** | Luminosity | Snow |
|---|---|---|---|---|---|---|---|
| 1777522802 | 5° C | 84% | 1016.1 hPa | 0 mm | - | 0 W/m² | - |
| 1777522502 | 5° C | 83% | 1016.2 hPa | 0 mm | - | 0 W/m² | - |
| 1777522202 | 5° C | 83% | 1016.3 hPa | 0 mm | - | 0 W/m² | - |
| 1777521001 | 5.56° C | 81% | 1016 hPa | 0 mm | - | 0 W/m² | - |
| 1777520401 | 6.11° C | 79% | 1016.2 hPa | 0 mm | - | 0 W/m² | - |
| 1777520102 | 6.11° C | 81% | 1016.1 hPa | 0 mm | - | 0 W/m² | - |
| 1777519802 | 6.11° C | 80% | 1016 hPa | 0 mm | - | 0 W/m² | - |
| 1777519202 | 6.11° C | 79% | 1016.1 hPa | 0 mm | - | 0 W/m² | - |
| 1777518602 | 6.67° C | 82% | 1016 hPa | 0 mm | - | 0 W/m² | - |
| 1777517402 | 6.67° C | 80% | 1016 hPa | 0 mm | - | 0 W/m² | - |
| 1777517102 | 6.67° C | 80% | 1015.9 hPa | 0 mm | - | 0 W/m² | - |
| 1777516501 | 6.67° C | 80% | 1015.9 hPa | 0 mm | - | 0 W/m² | - |
| 1777515902 | 6.67° C | 80% | 1015.9 hPa | 0 mm | - | 0 W/m² | - |
| 1777515602 | 6.67° C | 80% | 1015.9 hPa | 0 mm | - | 0 W/m² | - |
| 1777514402 | 7.22° C | 83% | 1015.6 hPa | 0 mm | - | 0 W/m² | - |
| 1777514102 | 7.22° C | 82% | 1015.6 hPa | 0 mm | - | 0 W/m² | - |
| 1777513802 | 7.22° C | 83% | 1015.4 hPa | 0 mm | - | 0 W/m² | - |
| 1777513502 | 7.22° C | 83% | 1015.2 hPa | 0 mm | - | 0 W/m² | - |
| 1777513202 | 7.22° C | 82% | 1015.4 hPa | 0 mm | - | 0 W/m² | - |
| 1777512002 | 7.22° C | 82% | 1015.3 hPa | 0 mm | - | 0 W/m² | - |
| 1777511702 | 7.22° C | 82% | 1015.2 hPa | 0 mm | - | 0 W/m² | - |
| 1777511402 | 7.22° C | 82% | 1015 hPa | 0 mm | - | 0 W/m² | - |
| 1777511102 | 7.22° C | 82% | 1015.2 hPa | 0 mm | - | 0 W/m² | - |
| 1777510502 | 7.22° C | 81% | 1015 hPa | 0 mm | - | 0 W/m² | - |
| 1777510202 | 7.22° C | 81% | 1015 hPa | 0 mm | - | 0 W/m² | - |
* Rain latest hour (hover to see other rain measurements)
** Current wind speed in m/s (hover to see current wind gust speed)